Tracking 18987 objects as of 25-Feb-2018
HD Live streaming from Space Station
objects crossing your sky now

COSMOS 1228

Track COSMOS 1228 now!
10-day predictions
COSMOS 1228 is classified as:


NORAD ID: 12107
Int'l Code: 1980-102A
Perigee: 1,399.7 km
Apogee: 1,472.0 km
Inclination: 74.0 °
Period: 114.4 minutes
Semi major axis: 7806 km
RCS: 0.7206 m2 (medium)
Launch date: December 23, 1980
Source: Commonwealth of Independent States (former USSR) (CIS)
Launch site: PLESETSK MISSILE AND SPACE COMPLEX (PKMTR)
aabbcc
Your satellite tracking list
Your tracking list is empty




NASA's NSSDC Master Catalog

Two Line Element Set (TLE):
1 12107U 80102A   18055.55402414 -.00000006  00000-0  63120-4 0  9999
2 12107  73.9949  74.6159 0046276 283.2576 178.0611 12.58599519708018
Source of the keplerian elements: AFSPC